TIME,DELAY(SENSOR),PRES,T(CTD),SAL,OXYGEN,RAWTEMP,T(OPTODE),TCPHASE,FLUOR,BETA(BETA700),BETA(BETA412),BETA(BETA440),CDOM,C(CSC),ED(ED412.40),ED(ED444.00),ED(ED489.70),ED(ED554.30),LU(LU411.80),LU(LU443.40),LU(LU489.60),LU(LU554.10),COMP,TILTX,TILTX(TILTY),CHECK
1359495654,5807,497.4599914550781000,6.5725002288818360,34.1106986999511700,78.5570831298828100,600.8546142578125000,6.5566558837890625,49.0936584472656250,51,103,88,80,79,15017,2147746569,2147424128,2148007012,2147872978,2147629403,2147070747,2148245302,2147199643,1264,4,13,59011
1359495789,5807,486.0599975585937500,6.7364997863769530,34.1055984497070300,87.2650909423828100,596.1060180664062000,6.7099838256835940,48.0184593200683600,51,104,85,79,79,15017,2147747565,2147425252,2148007030,2147871186,2147626550,2147070701,2148245604,2147200027,1022,4,13,55855
1359495921,5808,475.5499877929687500,6.8730001449584960,34.0994987487793000,94.4769973754882800,591.6348266601562000,6.8541622161865230,47.1550407409668000,51,104,88,79,79,15019,2147750144,2147425746,2148006308,2147873572,2147629458,2147069805,2148242660,2147201033,514,4,13,50531
1359496064,5806,465.1000061035156000,7.0110998153686520,34.0947990417480500,100.3906021118164000,587.1076049804688000,6.9999542236328125,46.4526100158691400,51,104,85,81,80,15017,2147744996,2147425718,2148005220,2147867858,2147629696,2147076251,2148243666,2147201462,453,4,13,54286
1359496211,5807,453.2399902343750000,7.1971998214721680,34.0924987792968750,106.4860992431640600,581.4187011718750000,7.1828899383544920,45.7328109741210940,50,104,90,78,78,15016,2147741805,2147424402,2148003126,2147869851,2147627456,2147078153,2148244754,2147198564,1224,4,13,45804
1359496332,5809,442.7500000000000000,7.3702001571655270,34.0892982482910160,113.0347976684570300,575.9448242187500000,7.3586387634277340,44.9895706176757800,50,103,85,79,77,15016,2147745069,2147424045,2148005540,2147872320,2147625590,2147080576,2148241974,2147198290,2190,4,13,53070
1359496467,5808,431.3599853515625000,7.7002000808715820,34.0890007019043000,120.4291992187500000,565.7866821289062000,7.6840710639953610,44.1064682006835940,51,103,86,80,76,15013,2147745206,2147428918,2148006226,2147869824,2147624859,2147084608,2148237924,2147200950,2168,4,13,62364
1359496599,5803,420.1900024414062500,8.0818004608154300,34.0988006591796900,128.8946990966797000,553.9661254882812000,8.0616436004638670,43.1213798522949200,51,104,86,81,75,15012,2147741805,2147425280,2148003300,2147870171,2147624036,2147084224,2148238226,2147203209,2602,4,13,58132
1359496734,5806,409.1499938964844000,8.2587995529174800,34.0945014953613300,135.2512054443359400,548.0692138671875000,8.2495651245117190,42.4511909484863300,50,105,88,79,75,15011,2147738870,2147423606,2148004672,2147870592,2147622253,2147085814,2148235739,2147204699,1399,4,13,5603
1359496866,5809,398.5799865722656000,8.5135002136230470,34.0900001525878900,145.6820068359375000,540.2775878906250000,8.4974288940429690,41.4268684387207000,50,105,87,80,74,15013,2147740918,2147427318,2148004964,2147873280,2147620928,2147085860,2148233499,2147206573,863,4,13,48864
1359497009,5808,387.2699890136719000,8.8575000762939450,34.0962982177734400,152.9282989501953000,529.5953979492188000,8.8364601135253900,40.6505813598632800,50,105,87,80,75,15010,2147739108,2147426880,2148001910,2147871369,2147620653,2147093494,2148233846,2147201398,405,4,13,53353
1359497134,5809,376.2900085449219000,9.0202999114990230,34.1018981933593750,160.7949066162109400,523.3953247070312000,9.0328330993652340,39.9279098510742200,49,105,88,81,73,15013,2147736548,2147426075,2148005138,2147869001,2147612224,2147090121,2148227209,2147203876,851,4,13,7928
1359497255,5808,364.6700134277344000,9.2237997055053710,34.1055984497070300,166.2823028564453000,517.3253173828125000,9.2248020172119140,39.4094886779785160,50,105,89,81,73,15011,2147738066,2147424822,2148003858,2147869357,2147616850,2147092690,2148234413,2147203364,406,4,13,58056
1359497368,5809,354.1199951171875000,9.4820995330810550,34.1086006164550800,175.2380981445312500,509.3038940429687500,9.4780712127685550,38.6213111877441400,50,105,88,81,72,15010,2147736292,2147427309,2148005101,2147868790,2147613814,2147100461,2148227611,2147205613,3408,3,13,5646
1359497489,5809,342.9800109863281000,9.9927997589111330,34.1152000427246100,185.0903930664062500,492.9963989257812500,9.9915523529052730,37.6646614074707000,50,105,86,79,72,15013,2147734518,2147427072,2148005714,2147873581,2147610523,2147095350,2148224923,2147203218,1062,4,14,53337
1359497610,5817,331.9899902343750000,10.3845996856689450,34.1279983520507800,191.2203979492187500,480.5515136718750000,10.3821897506713870,37.0517311096191400,49,107,90,80,71,15010,2147735515,2147427419,2148008841,2147870866,2147612032,2147104027,2148225225,2147204041,1806,3,13,13442
1359497722,5808,321.5199890136719000,10.7884998321533200,34.1365013122558600,196.5664062500000000,467.9090881347656000,10.7779998779296880,36.5003089904785160,49,103,86,80,70,15011,2147733385,2147425728,2148011392,2147870838,2147608246,2147107026,2148226825,2147202477,708,4,13,3577
1359497843,5809,310.3399963378906000,11.0979995727539060,34.1435012817382800,203.8379058837890600,457.7944030761719000,11.0939702987670900,35.8866081237793000,49,107,85,80,70,15013,2147735149,2147427885,2148014308,2147869229,2147608155,2147106532,2148223049,2147206281,849,4,13,35923
1359497964,5810,299.3999938964844000,11.3767995834350590,34.1416015625000000,205.4575958251953000,448.6098937988281000,11.3803596496582030,35.6401100158691400,48,102,87,80,71,15012,2147732489,2147430473,2148019894,2147870080,2147606198,2147112009,2148227355,2147204882,1189,3,14,37832
1359498098,5808,288.6199951171875000,11.8435001373291020,34.1544990539550800,207.1817016601562500,433.8287963867187500,11.8402700424194340,35.2992897033691400,48,103,87,79,68,15011,2147727195,2147432905,2148024265,2147873581,2147601618,2147115858,2148223936,2147208822,3312,4,14,36469
1359498252,5810,278.2000122070312500,12.2466001510620120,34.1651992797851560,208.9010009765625000,420.8902893066406000,12.2419004440307620,34.9923896789550800,48,102,86,79,69,15011,2147731456,2147436205,2148025362,2147871122,2147604955,2147118016,2148227428,2147209993,2593,4,14,35699
1359498409,5805,266.7900085449219000,12.9357004165649410,34.1847991943359400,209.0646057128906200,397.6115112304687500,12.9624700546264650,34.6178207397460940,48,103,88,79,68,15008,2147728128,2147438939,2148044928,2147871067,2147598217,2147129060,2148229641,2147208603,279,3,13,48587
1359498541,5805,255.0000000000000000,13.8909997940063480,34.2745018005371100,208.6058044433593800,367.4787902832031000,13.8917703628540040,34.1806907653808600,49,102,91,80,68,15008,2147723081,2147443446,2148044333,2147870765,2147595456,2147128758,2148221348,2147210523,3367,3,14,56293
1359498665,5809,243.9199981689453000,14.5142002105712890,34.3362007141113300,207.9263000488281200,346.9435119628906000,14.5231895446777340,33.9096984863281250,48,101,86,79,68,15004,2147723629,2147465261,2148101540,2147869248,2147592091,2147147053,2148245659,2147210724,2653,3,14,59328
1359498786,5807,233.0200042724609400,15.0173997879028320,34.3951988220214840,212.2243957519531200,331.2850952148437500,15.0037899017333980,33.4318199157714840,49,101,93,80,69,15007,2147723995,2147498459,2148180178,2147872237,2147586505,2147172900,2148283812,2147215524,2145,3,14,53311
1359498907,5809,222.2599945068359400,15.9145002365112300,34.4981002807617200,210.8262939453125000,301.5917053222656000,15.9134798049926760,33.0750312805175800,49,101,86,80,68,15003,2147728722,2147534262,2148256320,2147871634,2147589001,2147195200,2148316562,2147217627,1416,3,13,42586
1359499041,5808,211.6799926757812500,16.5534992218017580,34.5806999206543000,211.0917968750000000,280.4717102050781000,16.5594692230224600,32.7553901672363300,49,103,86,82,66,15003,2147737618,2147586624,2148360841,2147874148,2147587062,2147237357,2148360128,2147223771,786,3,14,48763
1359499195,5806,201.0399932861328000,17.4272003173828120,34.6964988708496100,210.2610015869140600,252.4234924316406200,17.4165191650390620,32.4033699035644500,50,104,85,80,65,14998,2147752146,2147651849,2148469696,2147871168,2147592100,2147272886,2148403200,2147223478,140,3,14,15420
1359499250,5808,197.3999938964843800,17.6040992736816400,34.7200012207031250,210.5014953613281200,246.1342926025390600,17.6086101531982420,32.3013801574707000,50,102,86,79,65,14995,2147749604,2147619245,2148376594,2147871552,2147588141,2147259794,2148368914,2147226752,3296,2,14,2609
1359499325,5803,192.8699951171875000,18.1667995452880860,34.7938003540039060,210.0695037841797000,227.4160003662109400,18.1802501678466800,32.0635910034179700,50,102,86,80,65,14997,2147762541,2147691044,2148525842,2147873609,2147595090,2147303588,2148429257,2147229732,2299,3,15,6988
1359499391,5807,189.8800048828125000,18.4144001007080080,34.8366012573242200,211.4367980957031200,220.5482940673828000,18.3899803161621100,31.8932399749755860,51,107,90,80,65,14995,2147770825,2147738486,2148627062,2147871826,2147598089,2147338651,2148482002,2147237787,2119,3,15,28857
1359499501,5807,186.3099975585937500,18.9841003417968750,34.9135017395019500,212.3582000732422000,202.6831970214843800,18.9356098175048830,31.5969505310058600,52,104,88,81,64,14991,2147784832,2147795373,2148728512,2147874907,2147600731,2147374665,2148533787,2147241298,2478,3,14,2994
1359499664,5809,183.1499938964843800,19.2336006164550780,34.9544982910156250,214.1159057617187500,193.0451965332031200,19.2300605773925780,31.3706302642822270,53,102,88,81,65,14988,2147777728,2147748105,2148607570,2147874066,2147592475,2147348288,2148451529,2147232329,1434,2,15,21130
1359499807,5815,179.1300048828125000,19.4696006774902340,34.9874992370605500,214.4671936035156200,184.3412017822265600,19.4960498809814450,31.2335605621337900,55,105,88,81,64,14987,2147810834,2147872146,2148863451,2147870235,2147609499,2147430637,2148596278,2147244004,1798,2,16,45583
1359499942,5805,174.5099945068359400,20.1170997619628900,35.0680999755859400,215.2864074707031200,164.6782073974609400,20.0972900390625000,30.9253807067871100,57,104,87,82,63,14981,2147845531,2147952384,2148997952,2147874688,2147622619,2147479067,2148660096,2147247771,1009,2,15,44761
1359500019,5809,170.0899963378906200,20.4118003845214840,35.0993003845214840,216.6669006347656200,154.1139984130859400,20.4205608367919920,30.7117004394531250,60,107,88,81,63,14977,2147888091,2148049124,2149153490,2147878381,2147636681,2147544310,2148733696,2147252745,1124,2,15,52893
1359500085,5808,166.1199951171875000,20.5478992462158200,35.1132011413574200,216.9859924316406200,150.3108062744140600,20.5370006561279300,30.6446609497070300,66,105,88,81,63,14968,2147936768,2148175643,2149351844,2147875392,2147656384,2147615433,2148824722,2147263414,465,2,15,39872
1359500151,5809,162.1900024414062500,20.6079998016357420,35.1222000122070300,217.4906005859375000,148.2550048828125000,20.5999507904052730,30.5909309387207030,67,109,88,79,62,14968,2147998409,2148284717,2149525988,2147877184,2147680566,2147678418,2148907401,2147267181,3239,2,16,58270
1359500220,5808,158.1699981689453000,20.7019004821777340,35.1324005126953100,217.7380981445312500,144.3320007324218800,20.7201004028320300,30.5261993408203120,66,112,86,81,62,14965,2148068315,2148433188,2149739702,2147880438,2147711762,2147761792,2149013010,2147278994,3192,2,16,48327
1359500286,5807,154.7400054931640600,20.8544006347656250,35.1446990966796900,218.1735992431640600,140.2572937011718800,20.8449306488037100,30.4498996734619140,72,111,87,82,64,14957,2148154349,2148580132,2149956278,2147881261,2147745929,2147843858,2149104932,2147288521,3383,2,16,3006
1359500374,5808,150.8099975585937500,21.1088008880615230,35.1610984802246100,219.0346984863281200,132.6067047119140600,21.0794105529785160,30.3047294616699220,78,116,87,81,63,14952,2148284946,2148819840,2150315885,2147882907,2147793892,2147964525,2149261577,2147297728,3355,2,15,20035
1359500473,5802,147.0200042724609400,21.2331008911132800,35.1692008972168000,220.4125976562500000,128.2597045898437500,21.2127094268798830,30.1773891448974600,84,114,89,82,64,14942,2148490249,2149179721,2150842806,2147887122,2147871890,2148144859,2149479314,2147316763,476,2,15,62950
1359500585,5812,142.6399993896484400,21.4498004913330080,35.1822013854980500,221.2660980224609400,121.9208984375000000,21.4071693420410160,30.0513191223144530,91,119,88,82,62,14935,2148641115,2149392566,2151113581,2147885165,2147932635,2148238153,2149574116,2147324955,1189,2,15,37596
1359500684,5810,138.8600006103515600,21.5167999267578120,35.1960983276367200,222.6625976562500000,118.4393997192382800,21.5140209197998050,29.9355201721191400,92,115,88,82,60,14931,2148991917,2149957741,2151917659,2147895570,2148072822,2148539520,2149955163,2147357531,3380,2,16,59204
1359500783,5810,134.7700042724609400,21.6455001831054700,35.2210006713867200,223.6764068603515600,114.5288009643554700,21.6340904235839840,29.8338394165039060,94,114,90,82,62,14931,2149269357,2150349824,2152426002,2147899812,2148179437,2148722660,2150146240,2147376539,2471,2,16,28692
1359500872,5806,130.4499969482422000,21.9004001617431640,35.2556991577148440,225.8256072998047000,106.3657989501953100,21.8848590850830080,29.6219902038574220,98,119,89,83,61,14924,2149945152,2151371437,2153797906,2147917083,2148454345,2149219044,2150729206,2147427017,2341,2,15,33340
1359500949,5810,126.0199966430664000,21.9185009002685550,35.2532005310058600,226.9120025634765600,105.3587036132812500,21.9158096313476560,29.5559196472167970,100,117,88,82,63,14925,2150570294,2152209590,2154793060,2147930212,2148718820,2149629458,2151138843,2147464630,1747,2,16,21981
1359501015,5809,122.2600021362304700,22.0048999786376950,35.2559013366699200,227.6927947998047000,102.5742034912109400,22.0014095306396500,29.4821491241455080,103,122,93,81,61,14914,2151357248,2153258404,2156132653,2147946797,2149040265,2150145801,2151702674,2147511369,1147,2,16,17423
1359501092,5813,118.1100006103515600,22.0928001403808600,35.2559013366699200,228.5245056152343800,99.8656463623046900,22.0846900939941400,29.4070205688476560,108,119,91,83,62,14910,2152799049,2155069293,2158345481,2147984859,2149590482,2150978148,2152595776,2147590089,389,2,16,38251
1359501160,5809,114.8499984741211000,22.2161998748779300,35.2457008361816400,228.9915924072265600,96.1936492919921900,22.1976394653320300,29.3371601104736330,112,118,88,83,61,14906,2154190464,2156768365,2160392859,2148016448,2150135872,2151767442,2153429092,2147672448,3497,2,15,803
1359501270,5806,110.8700027465820300,22.2830009460449220,35.2321014404296900,229.5538940429687500,93.0180969238281200,22.2953605651855470,29.2695407867431640,129,119,90,83,61,14893,2156610944,2159622582,2163626880,2148072914,2151060397,2152946907,2154586267,2147788909,1214,2,16,25279
1359501413,5807,107.5299987792968800,22.5837001800537100,35.2667999267578100,230.7673950195312500,84.2566070556640600,22.5651493072509770,29.0998706817626950,115,120,91,82,61,14891,2152578541,2153292726,2154760758,2147961819,2149540754,2150020470,2151021430,2147483730,1129,2,16,37780
1359501613,5807,103.4000015258789000,23.1686000823974600,35.2788009643554700,233.2299957275390600,65.3263473510742200,23.1490707397460940,28.7440891265869140,134,118,90,83,59,14863,2164811657,2167901110,2171925842,2148225545,2154719570,2156932379,2158144685,2148149787,3476,2,16,29568
1359501802,5808,97.9400024414062500,23.5044002532959000,35.3067016601562500,235.8927001953125000,53.7891883850097660,23.5056800842285160,28.4753894805908200,102,117,89,83,58,14866,2169938230,2172723337,2175863067,2148331757,2157527268,2159553051,2160068150,2148363666,3335,2,15,1755
1359501857,5806,95.1500015258789000,23.7124004364013670,35.3448982238769500,237.1483001708984400,47.3476104736328100,23.7050399780273440,28.3374900817871100,87,119,90,84,58,14887,2172756489,2175824256,2178826669,2148425700,2159490395,2161493952,2161637284,2148518235,2701,1,16,46948
1359501912,5805,92.4899978637695300,23.8619003295898440,35.3507995605468750,238.7734069824218800,42.8756484985351560,23.8435592651367200,28.2079792022705080,85,121,91,84,57,14890,2175479643,2179077686,2181933147,2148540973,2161990857,2163940489,2163463515,2148705051,1820,1,16,27698
1359501967,5807,90.3399963378906200,23.9027996063232420,35.3404998779296900,239.4790039062500000,41.2035408020019500,23.8953800201416000,28.1553707122802730,81,120,88,84,58,14890,2164231414,2165050413,2165695670,2148222601,2156716032,2157025216,2156458185,2148030619,1105,1,16,41830
1359502022,5807,88.5100021362304700,23.9764003753662100,35.3396987915039060,239.8058013916015600,38.9291496276855500,23.9658794403076170,28.1125297546386720,79,122,90,84,58,14876,2179170048,2182630153,2185161435,2148668233,2165865929,2167609344,2166136521,2148936429,532,1,16,6124
1359502077,5805,86.8399963378906200,24.0743007659912100,35.3375015258789060,239.6578063964843800,35.5911293029785160,24.0694007873535160,28.0776100158691400,78,122,91,85,56,14886,2181257197,2184830390,2187264000,2148776905,2168308864,2170041828,2168040365,2149100379,219,2,16,3469
1359502155,5807,84.3000030517578100,24.1566009521484380,35.3493003845214840,239.4851989746093800,32.9944610595703100,24.1499691009521500,28.0532608032226560,74,121,91,85,56,14876,2184983286,2189045714,2191489280,2148985298,2172557805,2174138386,2171078400,2149385161,163,2,16,57038
1359502210,5807,81.8899993896484400,24.2087001800537100,35.3469009399414060,239.3314056396484400,31.3752708435058600,24.2002296447753900,28.0400600433349600,72,119,91,84,57,14873,2188869211,2193534409,2195910528,2149214235,2177086281,2178650788,2174412836,2149677430,506,2,16,57388
1359502265,5809,79.4100036621093800,24.2096996307373050,35.3459014892578100,239.4078063964843800,31.1941108703613280,24.2058506011962900,28.0343093872070300,72,119,91,85,58,14872,2192729481,2197784201,2199894921,2149481042,2181598418,2182992923,2177511597,2149956068,570,1,16,37830
1359502320,5804,76.8300018310546900,24.2243003845214840,35.3450012207031250,239.2640991210937500,30.6013698577880860,24.2242603302001950,28.0334606170654300,71,119,91,84,58,14875,2198788278,2204482934,2206788114,2149958235,2187650733,2188978916,2182004982,2150404425,161,2,16,4106
1359502375,5809,74.0699996948242200,24.3173999786376950,35.3344993591308600,238.9801025390625000,27.7879390716552730,24.3116207122802730,28.0114097595214840,69,120,91,83,56,14876,2205182134,2211972242,2214516845,2150413961,2193592585,2195069549,2186630244,2150859373,3517,2,16,1318
1359502430,5805,71.2099990844726600,24.3514003753662100,35.3401985168457000,239.0328979492187500,26.6532993316650400,24.3468704223632800,27.9950504302978500,67,121,91,84,56,14877,2211050770,2218336649,2220804416,2151028352,2200094217,2201619446,2191508964,2151359606,43,2,15,26950
1359502487,5809,67.9100036621093800,24.3673000335693360,35.3396987915039060,239.0180053710937500,26.0319404602050780,24.3661708831787100,27.9878692626953120,65,120,91,84,56,14869,2218364315,2226325321,2228639990,2151766500,2207702738,2209081170,2196694336,2151882432,452,2,16,12314
1359502542,5809,64.4400024414062500,24.5676002502441400,35.3302993774414060,237.9880981445312500,19.8005294799804700,24.5598907470703120,27.9572505950927730,62,119,92,82,58,14869,2222867885,2230960795,2233150171,2152786432,2214675867,2215624548,2201406976,2152468699,3099,2,16,11060
1359502597,5808,61.4300003051757800,24.6755008697509770,35.3274002075195300,237.2516937255859400,16.5660705566406250,24.6605205535888670,27.9503707885742200,62,117,92,85,56,14869,2229536128,2238015369,2240540836,2153696073,2221957522,2222931556,2206737051,2153104137,3555,2,16,3050
1359502652,5809,58.9500007629394500,24.7173004150390620,35.3259010314941400,236.8282012939453000,14.8370199203491210,24.7143402099609380,27.9482994079589840,59,118,89,85,61,14869,2233730057,2242251190,2244575972,2154669065,2228242688,2228893074,2210805430,2153602761,384,2,16,36018
1359502707,5805,56.5699996948242200,24.7420005798339840,35.3249015808105500,236.6320953369140600,13.9016399383544920,24.7434597015380860,27.9456501007080080,59,116,90,84,58,14870,2241658349,2250767341,2253358427,2155984603,2235870061,2236363428,2216016768,2154306614,443,1,16,58223
1359502762,5808,54.2700004577636700,24.7541007995605470,35.3246994018554700,236.4866027832031200,13.4612398147583000,24.7571697235107420,27.9467601776123050,58,118,90,83,54,14874,2246317156,2255581312,2258172123,2157478354,2241323200,2241503725,2219409810,2154822646,611,1,16,15985
1359502819,5809,52.0099983215332000,24.7558994293212900,35.3250007629394500,236.6622924804687500,13.2542200088500980,24.7636203765869140,27.9362392425537100,58,116,89,85,53,14879,2255217965,2265704429,2269474249,2159493120,2251879478,2252071030,2227204608,2155862354,508,1,16,5288
1359502874,5810,49.9000015258789060,24.7586994171142580,35.3246994018554700,236.5207977294922000,13.1002998352050780,24.7684097290039060,27.9408302307128900,56,117,89,82,58,14879,2268025353,2279227373,2283712649,2162684352,2266383442,2266767890,2238072859,2157409499,545,1,16,48081
1359502929,5807,47.8499984741210940,24.7609996795654300,35.3250999450683600,236.5970001220703000,13.0764999389648440,24.7691497802734380,27.9369697570800780,57,119,92,82,56,14873,2267900690,2279278409,2284148452,2163947218,2264182875,2263541869,2234735424,2157325330,499,1,16,17232
1359502984,5807,45.8600006103515600,24.7635993957519530,35.3245010375976560,236.5475006103515600,13.0796499252319340,24.7690505981445300,27.9392204284667970,56,117,89,84,57,14874,2219560950,2222289828,2221731044,2157189421,2220252608,2216556827,2197523867,2153062884,184,2,17,30858
1359503039,5808,43.8600006103515600,24.7670001983642580,35.3242988586425800,236.6145935058593800,12.9944801330566400,24.7717094421386720,27.9350490570068360,55,117,90,83,58,14880,2216244224,2217816274,2216566628,2156737965,2221452745,2217103680,2197448713,2153070528,190,2,17,63290
1359503094,5805,41.8100013732910160,24.7693004608154300,35.3233985900878900,236.6345062255859400,13.0085401535034180,24.7712707519531250,27.9343299865722660,55,118,94,83,57,14875,2212750729,2213239652,2211174747,2156520557,2218076132,2213046902,2193814957,2152688868,109,2,17,31101
1359503172,5810,38.4500007629394500,24.7731990814209000,35.3232002258300800,236.7947998046875000,12.8263101577758790,24.7769393920898440,27.9248409271240230,55,118,91,85,54,14877,2235974290,2237707163,2236290285,2161952722,2249434377,2243866139,2216014893,2155555648,82,2,16,46610
1359503227,5810,35.4799995422363300,24.7728004455566400,35.3241996765136700,236.8654937744140600,12.6958999633789060,24.7810001373291000,27.9200496673584000,55,120,90,85,55,14880,2308104502,2320038354,2327393170,2184578066,2313843062,2309447488,2266046518,2163938505,102,2,15,40997
1359503282,5808,32.4300003051757800,24.7751998901367200,35.3238983154296900,236.8995971679687500,12.4854297637939450,24.7875595092773440,27.9158802032470700,54,114,91,85,59,14873,2333601819,2347346322,2356945801,2195336155,2351542427,2348190390,2295050130,2169009682,152,1,15,5657
1359503337,5805,29.3899993896484380,24.7761993408203120,35.3244018554687500,236.9344024658203000,12.4132499694824220,24.7898101806640620,27.9134597778320300,53,116,92,85,53,14881,2345082642,2358935725,2369580480,2205660626,2368511588,2363537197,2305157760,2172096374,347,1,16,10450
1359503392,5810,26.3500003814697270,24.7765007019042970,35.3241004943847660,237.1278991699218800,12.3817701339721680,24.7907905578613280,27.9043006896972660,52,116,93,84,59,14883,2338072868,2348606171,2357138541,2211315757,2367054336,2360339766,2302448009,2173766848,56,3,17,2572
1359503447,5808,23.3700008392334000,24.7780990600585940,35.3238983154296900,237.0856018066406200,12.3067398071289060,24.7931194305419920,27.9052906036376950,53,115,91,83,59,14875,2326322112,2334677888,2341753252,2215981238,2353041005,2344170450,2289165705,2173163437,3297,2,17,43495
